User: anonymous   Login
Location: ROBOsky.com Wild Flower Ridge Observatory
(43.9736°N, 79.9739°W)
Time: 04:28:37
(UTC-04:00)
Language:

Cosmos 1190 Rocket - Orbit

View from above orbital plane
View from above orbital plane
View from above satellite
View from above satellite

Ground track
Ground track

The orbit data is extracted from the following two-line orbital elements,

1 11870U 80056B   15149.47128162  .00000023  00000-0  16880-4 0  9999
2 11870 074.0509 144.3613 0017686 282.5063 077.4111 14.36697363827130
Epoch (UTC): 29 May 2015 11:18:38
Eccentricity: 0.0017686
inclination: 74.0509°
perigee height: 757 km
apogee height: 782 km
right ascension of ascending node: 144.3613°
argument of perigee: 282.5063°
revolutions per day: 14.36697363
mean anomaly at epoch: 77.4111°
orbit number at epoch: 82713

The dashed part of the orbit path shows where the satellite is in the earth's shadow,  

DLR